Back to catalog

COSMOS 2251 DEB

AliveLEO
NORAD 35660·DEBRIS·🇷🇺 Russia

Launched Jun 16, 1993 from Plesetsk Cosmodrome

Loading…

Next Passes (next 24 hours)

TLE

AgingSource: Space-Track

Epoch: Sep 9, 2026, 23:30 UTC

1 35660U 93036APB 26252.97938955  .00000664  00000-0  17583-3 0  9996
2 35660  74.0418 343.7262 0016799  61.0686  52.7755 14.50658886698030

Track COSMOS 2251 DEB in real time with AllMySat

Download on the App Store